Overview Statistics Trail Chart Weather Telemetry Raw packets
 

This is the latest recevied weather packets stored in our database for station/object KI6SYE. If no packets are shown the sender has not sent any weather packets the latest 10 day(s).

<< 19 20 21 22 23 24 25 >>
Time Temp. Humidity Pressure Rain* Wind** Luminosity Snow
1788545766 23.89° C 72% 1013.8 hPa 0 mm - 665 W/m² -
1788545466 23.33° C 73% 1013.7 hPa 0 mm - 661 W/m² -
1788545161 23.33° C 73% 1013.8 hPa 0 mm - 648 W/m² -
1788544856 22.78° C 74% 1013.8 hPa 0 mm - 638 W/m² -
1788544549 23.33° C 74% 1014 hPa 0 mm - 654 W/m² -
1788544248 23.33° C 73% 1014 hPa 0 mm - 653 W/m² -
1788543943 22.78° C 75% 1013.8 hPa 0 mm - 629 W/m² -
1788543640 22.78° C 75% 1013.9 hPa 0 mm - 623 W/m² -
1788543339 23.33° C 74% 1014.1 hPa 0 mm - 624 W/m² -
1788543035 22.78° C 74% 1013.9 hPa 0 mm - 615 W/m² -
1788542731 23.89° C 70% 1014.1 hPa 0 mm - 598 W/m² -
1788542430 24.44° C 65% 1013.7 hPa 0 mm - 593 W/m² -
1788542125 23.89° C 68% 1013.8 hPa 0 mm - 639 W/m² -
1788541821 23.33° C 69% 1013.7 hPa 0 mm - 164 W/m² -
1788541517 22.78° C 73% 1013.8 hPa 0 mm - 552 W/m² -
1788541213 22.22° C 74% 1013.6 hPa 0 mm - 593 W/m² -
1788540912 22.22° C 73% 1013.8 hPa 0 mm - 216 W/m² -
1788540611 22.78° C 73% 1013.7 hPa 0 mm - 183 W/m² -
1788540306 23.33° C 72% 1013.4 hPa 0 mm - 157 W/m² -
1788540002 23.89° C 70% 1013.3 hPa 0 mm - 490 W/m² -
1788539695 22.78° C 74% 1013.4 hPa 0 mm - 485 W/m² -
1788539395 22.78° C 74% 1013.4 hPa 0 mm - 154 W/m² -
1788539091 22.78° C 73% 1013.3 hPa 0 mm - 144 W/m² -
1788538786 22.78° C 73% 1013.5 hPa 0 mm - 276 W/m² -
1788538482 23.33° C 73% 1013.4 hPa 0 mm - 388 W/m² -

* Rain latest hour (hover to see other rain measurements)
** Current wind speed in m/s (hover to see current wind gust speed)